Volver al catálogo

ATLAS 5 CENTAUR DEB

ActivoHEO
NORAD 44661·DEBRIS·🇺🇸 United States

Lanzado Oct 17, 2018 desde Cape Canaveral Space Force Station

Loading…

Próximos Pases (próximas 24 horas)

TLE

ActualizadoSource: Space-Track

Época: Sep 14, 2026, 13:05 UTC

1 44661U 18079X   26257.54580901 -.00000153  00000-0  00000-0 0  9990
2 44661  13.1367  54.9740 4624337 272.4019  37.4017  1.72652615 50144

Sigue ATLAS 5 CENTAUR DEB en tiempo real con AllMySat

Download on the App Store